Flag for U.S.A. Weather past 2 weeks in Fresno, California, U.S.A.

Now
69 °F

Clear.


Feels Like: 69 °F
Forecast: 63 / 90 °F
Wind: 3 mph from Northwest

Location: Fresno Air Terminal

Current Time: Aug 20, 2014 at 4:38:56 AM

Latest Report: Aug 20, 2014 at 3:53 AM


Visibility: 10 mi

Pressure: 29.80 "Hg

Humidity: 66%

Dew point: 57 °F

Location of FresnoLocation

Historic Weather in Fresno — Graph

°F

Fresno temperature yesterday

Maximum temperature yesterday: 93 °F (at 4:53 PM)
Minimum temperature yesterday: 68 °F (at 5:53 AM)
Average temperature yesterday: 80 °F

Past Weeks' High & Low Weather Summary

 TemperatureHumidityPressure
High103 °F (Aug 11, 3:53 PM)87% (Aug 6, 5:53 AM)30.00 "Hg (Aug 6, 5:53 AM)
Low67 °F (Aug 6, 5:53 AM)8% (Aug 15, 6:53 PM)29.70 "Hg (Aug 18, 6:53 PM)
Average85 °F37%29.86 "Hg
* Reported Aug 5 2:53 AM — Aug 20 2:53 AM, Fresno, Weather by CustomWeather, © 2014

Note: Actual official high and low records may vary slightly from our data, if they occured in-between our weather recording intervals... More about our weather records

Advertising

Fresno weather history for previous 24 hours

 ConditionsComfort  
Time TempWeatherWind HumidityBarometerVisibility
2:53 AM
Aug 20
70 °FPassing clouds.3 mph64%29.81 "Hg10 mi
1:53 AM71 °FPassing clouds.5 mph61%29.79 "Hg10 mi
12:53 AM73 °FPassing clouds.10 mph57%29.79 "Hg10 mi
11:53 PM
Aug 19
75 °FOvercast.12 mph52%29.77 "Hg10 mi
10:53 PM77 °FPassing clouds.10 mph47%29.77 "Hg10 mi
9:53 PM81 °FPassing clouds.10 mph41%29.76 "Hg10 mi
8:53 PM85 °FPartly cloudy.13 mph37%29.75 "Hg10 mi
7:53 PM89 °FBroken clouds.14 mph25%29.71 "Hg10 mi
6:53 PM91 °FScattered clouds.7 mph19%29.72 "Hg10 mi
5:53 PM92 °FScattered clouds.No wind17%29.71 "Hg10 mi
4:53 PM93 °FScattered clouds.6 mph16%29.71 "Hg10 mi
3:53 PM92 °FScattered clouds.6 mph17%29.72 "Hg10 mi
2:53 PM91 °FScattered clouds.6 mph23%29.75 "Hg10 mi
1:53 PM88 °FPartly sunny.3 mph28%29.77 "Hg10 mi
12:53 PM88 °FPartly sunny.10 mph31%29.78 "Hg10 mi
11:53 AM84 °FPartly sunny.10 mph36%29.80 "Hg10 mi
10:53 AM81 °FPartly sunny.8 mph41%29.80 "Hg10 mi
9:53 AM76 °FBroken clouds.7 mph48%29.80 "Hg10 mi
8:53 AM74 °FPartly sunny.6 mph53%29.80 "Hg10 mi
7:53 AM72 °FPartly sunny.5 mph57%29.78 "Hg10 mi
6:53 AM68 °FMostly cloudy.5 mph65%29.78 "Hg10 mi
5:53 AM68 °FPassing clouds.6 mph68%29.76 "Hg10 mi
4:53 AM69 °FPassing clouds.9 mph66%29.75 "Hg10 mi
Weather by CustomWeather, © 2014

See weather overviewHow to use our weather pages